Starlink 1800

operational
NORAD ID: 46700 Int'l Des: 2020-073 Owner: SPXS Country: US Constellation: starlink
LEOCIRCULARSTARLINK_TYPE

关于 Starlink 1800

正在加载描述...

实时位置

正在加载3D地球...

即将过境

高度历史

Altitude vs Time

uPlot chart will show altitude changes over time

两行轨道根数

1 46700U 20073AG 25308.64147958 .00108634 00000-0 29373-2 0 9999
2 46700 53.0515 93.5291 0002929 286.9104 73.1577 15.36879999278136
Epoch: Nov 4, 2025 • Age: 6 hours

当前状态

高度 468.0 km
速度 7.63 km/s
星下点 -43.99°S, 41.1°E
发射日期 Oct 18, 2020
运行时间 5 years
类型 internet

技术详情

分类 Payload
质量 260.00 kg
干质量 248.00 kg
总质量 260.00 kg
长度 0.20 m
直径 2.80 m
跨度 9.00 m
形状 Box + pan
制造商 SPXS
平台类型 Starlink
阶段状态 In Orbit
所有者/国家 SPXS/US

大型星座

Loading constellations...